FW6182 Weather Reports


Display with metric or nautical units.
time (UTC)temp
F
wind
direction
speed
MPH
gust
MPH
rain 1hr
in
rain 24hr
in
rain mn
in
humidity
%
barometer
mb
20260906174154 100 239 5.0 12.0 0.00 0.00 0.00 41 874.1
20260906173138 101 355 3.0 12.0 0.00 0.00 0.00 39 1019.8
20260906171604 101 286 3.0 12.0 0.00 0.00 0.00 40 1018.7
20260906171103 100 181 1.0 12.0 0.00 0.00 0.00 41 963.9
20260906170602 100 326 4.0 12.0 0.00 0.00 0.00 42 1051.1
20260906165044 101 355 3.0 12.0 0.00 0.00 0.00 41 1124.7
20260906164544 100 341 4.0 12.0 0.00 0.00 0.00 42 1050.7
20260906164043 100 259 3.0 12.0 0.00 0.00 0.00 44 1023.4
20260906163026 99 325 5.0 12.0 0.00 0.00 0.00 44 1083.2
20260906161454 98 351 3.0 12.0 0.00 0.00 0.00 47 1021.8
20260906160437 99 329 2.0 12.0 0.00 0.00 0.00 48 1059.5
20260906155421 98 308 3.0 12.0 0.00 0.00 0.00 49 1111.6
20260906154920 97 356 3.0 12.0 0.00 0.00 0.00 49 1153.2
20260906154419 96 357 5.0 12.0 0.00 0.00 0.00 50 1145.1
20260906153918 96 354 4.0 12.0 0.00 0.00 0.00 51 1131.4
20260906151829 93 352 3.0 12.0 0.00 0.00 0.00 54 1000.7
20260906150813 92 262 3.0 12.0 0.00 0.00 0.00 57 824.0
20260906150312 91 229 3.0 12.0 0.00 0.00 0.00 57 800.1
20260906145255 91 124 3.0 12.0 0.00 0.00 0.00 57 757.4
20260906143722 89 163 1.0 12.0 0.00 0.00 0.00 60 641.3
20260906143221 88 11 2.0 12.0 0.00 0.00 0.00 62 545.4
20260906142720 88 89 1.0 12.0 0.00 0.00 0.00 63 498.0
20260906142219 87 58 2.0 12.0 0.00 0.00 0.00 63 531.0
20260906141718 87 150 1.0 12.0 0.00 0.00 0.00 64 427.5
20260906140702 87 14 0.0 12.0 0.00 0.00 0.00 65 372.8
20260906140201 86 75 0.0 12.0 0.00 0.00 0.00 66 522.8
20260906134628 84 18 1.0 12.0 0.00 0.00 0.00 70 274.3
20260906132541 81 13 1.0 12.0 0.00 0.00 0.00 75 335.2
20260906132040 80 12 0.0 12.0 0.00 0.00 0.00 76 449.9
20260906123333 75 0 0.0 12.0 0.00 0.00 0.00 84 1218.4
20260906122316 74 0 0.0 12.0 0.00 0.00 0.00 85 1162.5
20260906121300 74 0 0.0 12.0 0.00 0.00 0.00 86 941.9
20260906120243 73 162 0.0 12.0 0.00 0.00 0.00 87 837.3
20260906113122 72 254 0.0 12.0 0.00 0.00 0.00 87 854.8
20260906112621 73 226 0.0 12.0 0.00 0.00 0.00 87 842.5
20260906112120 73 229 0.0 12.0 0.00 0.00 0.00 86 839.6
20260906111619 73 226 0.0 12.0 0.00 0.00 0.00 86 838.4
20260906111118 73 227 0.0 12.0 0.00 0.00 0.00 86 847.0
20260906105045 73 212 0.0 12.0 0.00 0.00 0.00 85 811.8
20260906104544 73 222 0.0 12.0 0.00 0.00 0.00 85 815.4
20260906103528 74 221 0.0 12.0 0.00 0.00 0.00 85 825.6
20260906103027 74 226 0.0 12.0 0.00 0.00 0.00 85 834.4
20260906101455 74 223 0.0 12.0 0.00 0.00 0.00 85 819.1
20260906095922 74 220 0.0 12.0 0.00 0.00 0.00 84 775.1
20260906095422 74 220 0.0 12.0 0.00 0.00 0.00 84 734.0
20260906094922 74 219 0.0 12.0 0.00 0.00 0.00 84 649.9
20260906093905 75 140 0.0 12.0 0.00 0.00 0.00 84 598.0
20260906093404 75 145 0.0 12.0 0.00 0.00 0.00 83 635.0
20260906092347 75 119 0.0 12.0 0.00 0.00 0.00 83 633.0
20260906090814 75 135 0.0 12.0 0.00 0.00 0.00 83 529.7
20260906090313 75 106 0.0 12.0 0.00 0.00 0.00 83 504.8
20260906085813 75 117 0.0 12.0 0.00 0.00 0.00 83 524.0
20260906084756 76 131 0.0 12.0 0.00 0.00 0.00 82 557.8
20260906083739 76 71 0.0 12.0 0.00 0.00 0.00 82 528.1
20260906083238 76 89 0.0 12.0 0.00 0.00 0.00 82 521.0
20260906081705 77 219 0.0 12.0 0.00 0.00 0.00 81 856.7
20260906075101 77 241 0.0 12.0 0.00 0.00 0.00 79 814.4
20260906074044 78 234 0.0 12.0 0.00 0.00 0.00 79 743.8
20260906072511 78 91 0.0 12.0 0.00 0.00 0.00 78 646.1
20260906070937 78 339 0.0 12.0 0.00 0.00 0.00 77 898.3
20260906065921 78 141 0.0 12.0 0.00 0.00 0.00 77 658.1
20260906065420 78 154 0.0 12.0 0.00 0.00 0.00 77 730.1
20260906063847 79 0 0.0 12.0 0.00 0.00 0.00 75 1119.1
20260906062315 80 149 0.0 12.0 0.00 0.00 0.00 74 733.1
20260906060226 80 356 0.0 12.0 0.00 0.00 0.00 73 814.2
20260906055725 80 142 0.0 12.0 0.00 0.00 0.00 73 696.5
20260906055224 80 138 0.0 12.0 0.00 0.00 0.00 72 706.0
20260906054723 81 222 0.0 12.0 0.00 0.00 0.00 71 855.5
20260906051602 83 195 0.0 12.0 0.00 0.00 0.00 68 971.4
20260906051101 83 359 0.0 12.0 0.00 0.00 0.00 67 988.0
20260906050044 84 292 0.0 12.0 0.00 0.00 0.00 66 941.0
20260906045028 84 247 1.0 12.0 0.00 0.00 0.00 66 953.1
20260906044527 84 273 2.0 12.0 0.00 0.00 0.00 65 1019.9
20260906043510 84 305 2.0 12.0 0.00 0.00 0.00 65 1036.1
20260906042453 84 268 1.0 12.0 0.00 0.00 0.00 66 911.9
20260906041952 83 353 2.0 12.0 0.00 0.00 0.00 66 844.1
20260906041451 84 187 1.0 12.0 0.00 0.00 0.00 66 727.6
20260906040950 84 183 1.0 12.0 0.00 0.00 0.00 66 743.1
20260906040449 83 184 0.0 12.0 0.00 0.00 0.00 67 778.1
20260906035948 83 185 0.0 12.0 0.00 0.00 0.00 67 850.0
20260906034931 84 174 0.0 12.0 0.00 0.00 0.00 66 778.5
20260906034430 84 201 0.0 12.0 0.00 0.00 0.00 65 789.3
20260906033929 84 202 0.0 12.0 0.00 0.00 0.00 65 813.0
20260906031325 82 182 0.0 12.0 0.00 0.00 0.00 69 736.6
20260906030824 82 181 0.0 12.0 0.00 0.00 0.00 70 773.5
20260906025806 82 202 0.0 12.0 0.00 0.00 0.00 70 858.0
20260906025306 82 193 0.0 12.0 0.00 0.00 0.00 69 958.8
20260906021631 83 228 0.0 12.0 0.00 0.00 0.00 66 912.5
20260906021129 83 224 0.0 12.0 0.00 0.00 0.00 67 989.5
20260906020628 83 304 0.0 12.0 0.00 0.00 0.00 66 1066.4
20260906014025 85 289 0.0 12.0 0.00 0.00 0.00 64 918.3
20260906013009 86 183 0.0 12.0 0.00 0.00 0.00 63 727.9
20260906010404 89 190 0.0 12.0 0.00 0.00 0.00 57 817.0
20260906005903 90 202 0.0 12.0 0.00 0.00 0.00 55 902.6
20260906005403 91 208 0.0 12.0 0.00 0.00 0.00 53 1044.3
20260906004902 93 0 0.0 12.0 0.00 0.00 0.00 51 1150.8
20260906004401 94 0 0.0 12.0 0.00 0.00 0.00 51 1077.8
20260906003344 95 224 0.0 12.0 0.00 0.00 0.00 48 1057.5
20260906002843 96 0 1.0 12.0 0.00 0.00 0.00 46 1204.5
20260906002343 98 0 1.0 12.0 0.00 0.00 0.00 43 1207.1
20260906001842 99 0 1.0 12.0 0.00 0.00 0.00 40 1204.8
20260906000826 100 0 0.0 12.0 0.00 0.00 0.00 39 1162.0
20260906000326 101 37 2.0 12.0 0.00 0.00 0.00 38 1134.3
20260905235823 102 359 0.0 12.0 0.00 0.00 0.00 40 1208.9
20260905235322 103 0 0.0 12.0 0.00 0.00 0.00 36 1211.8
20260905234822 105 0 0.0 12.0 0.00 0.00 0.00 35 1215.7
20260905234321 105 0 0.0 12.0 0.00 0.00 0.00 34 1217.1
20260905233821 105 0 0.0 12.0 0.00 0.00 0.00 35 1218.7
20260905232248 104 0 1.0 12.0 0.00 0.00 0.00 34 1220.9
20260905231748 104 0 1.0 12.0 0.00 0.00 0.00 36 1218.5
20260905231246 103 359 0.0 12.0 0.00 0.00 0.00 36 1212.5
20260905225714 104 359 3.0 12.0 0.00 0.00 0.00 34 1179.3
20260905224658 103 359 5.0 12.0 0.00 0.00 0.00 35 1146.3
20260905223125 102 350 2.0 12.0 0.00 0.00 0.00 37 1115.1
20260905222624 102 305 1.0 12.0 0.00 0.00 0.00 38 1042.1
20260905222124 101 287 5.0 12.0 0.00 0.00 0.00 37 1021.3
20260905220551 101 359 1.0 12.0 0.00 0.00 0.00 38 1084.4
20260905215534 101 357 2.0 12.0 0.00 0.00 0.00 38 1075.0
20260905215034 101 325 3.0 12.0 0.00 0.00 0.00 38 965.7
20260905214017 101 199 6.0 12.0 0.00 0.00 0.00 39 862.3
20260905213517 101 201 3.0 12.0 0.00 0.00 0.00 40 905.5
20260905211944 101 319 5.0 12.0 0.00 0.00 0.00 40 934.9
20260905210411 101 206 5.0 12.0 0.00 0.00 0.00 40 879.8
20260905203807 100 93 2.0 12.0 0.00 0.00 0.00 39 789.2
20260905203306 100 204 4.0 12.0 0.00 0.00 0.00 39 851.4
20260905202806 101 110 3.0 12.0 0.00 0.00 0.00 38 939.0
20260905201234 105 210 2.0 12.0 0.00 0.00 0.00 34 1035.5
20260905200733 106 359 2.0 12.0 0.00 0.00 0.00 34 1136.9
20260905200232 106 358 4.0 12.0 0.00 0.00 0.00 34 1059.0
20260905194659 104 351 0.0 12.0 0.00 0.00 0.00 36 1087.8
20260905194158 104 284 7.0 11.0 0.00 0.00 0.00 37 1055.4
20260905193657 104 339 6.0 11.0 0.00 0.00 0.00 36 1113.8
20260905192640 105 343 3.0 11.0 0.00 0.00 0.00 36 1078.3
20260905191624 102 357 4.0 11.0 0.00 0.00 0.00 37 1097.2
20260905191124 101 352 5.0 11.0 0.00 0.00 0.00 38 1018.9
20260905190623 101 348 3.0 11.0 0.00 0.00 0.00 40 963.1
20260905185051 101 298 4.0 11.0 0.00 0.00 0.00 39 1011.5
20260905180342 99 230 2.0 11.0 0.00 0.00 0.00 42 971.1
20260905175842 99 341 4.0 11.0 0.00 0.00 0.00 42 1052.7
20260905175341 99 359 2.0 11.0 0.00 0.00 0.00 42 1008.3
20260905174840 98 149 3.0 11.0 0.00 0.00 0.00 43 948.6